Hourly Weather Bissau

Today, 6 July, Monday

Time Temperature Precipitation Wind Pressure Humidity
00:00 +28°C° 0.1 mm 3 mps 759 mmHg 83%
01:00 +28°C° 0.1 mm 3 mps 758 mmHg 84%
02:00 +28°C° 0.1 mm 2 mps 758 mmHg 84%
03:00 +28°C° 0 mm 3 mps 757 mmHg 84%
04:00 +28°C° 0 mm 3 mps 757 mmHg 85%
05:00 +28°C° 0 mm 3 mps 757 mmHg 85%
06:00 +29°C° 0.1 mm 3 mps 758 mmHg 81%
07:00 +30°C° 0.1 mm 3 mps 758 mmHg 76%
08:00 +31°C° 0.1 mm 3 mps 758 mmHg 72%
09:00 +31°C° 0.2 mm 3 mps 758 mmHg 69%
10:00 +33°C° 0.2 mm 4 mps 758 mmHg 66%
11:00 +34°C° 0.2 mm 4 mps 759 mmHg 62%
12:00 +34°C° 0.4 mm 4 mps 758 mmHg 61%
13:00 +34°C° 0.4 mm 5 mps 757 mmHg 60%
14:00 +34°C° 0.4 mm 5 mps 757 mmHg 59%
15:00 +34°C° 0.1 mm 5 mps 757 mmHg 61%
16:00 +33°C° 0.1 mm 5 mps 756 mmHg 63%
17:00 +33°C° 0.1 mm 5 mps 756 mmHg 64%
18:00 +32°C° 0.4 mm 4 mps 757 mmHg 69%
19:00 +30°C° 0.4 mm 4 mps 757 mmHg 73%
20:00 +29°C° 0.4 mm 4 mps 758 mmHg 77%
21:00 +29°C° 0.8 mm 3 mps 758 mmHg 79%
22:00 +29°C° 0.8 mm 3 mps 758 mmHg 80%
23:00 +29°C° 0.8 mm 3 mps 759 mmHg 82%

Tomorrow, 7 July, Tuesday

Time Temperature Precipitation Wind Pressure Humidity
00:00 +28°C° 2.6 mm 3 mps 758 mmHg 85%
01:00 +27°C° 2.6 mm 3 mps 758 mmHg 89%
02:00 +27°C° 2.6 mm 3 mps 757 mmHg 92%
03:00 +26°C° 1.8 mm 3 mps 758 mmHg 92%
04:00 +26°C° 1.8 mm 4 mps 758 mmHg 92%
05:00 +26°C° 1.8 mm 4 mps 758 mmHg 93%
06:00 +26°C° 0.4 mm 3 mps 758 mmHg 92%
07:00 +25°C° 0.4 mm 3 mps 758 mmHg 92%
08:00 +25°C° 0.4 mm 2 mps 759 mmHg 92%
09:00 +26°C° 0.1 mm 2 mps 759 mmHg 89%
10:00 +27°C° 0.1 mm 1 mps 759 mmHg 85%
11:00 +26°C° 0.1 mm 0 mps 758 mmHg 81%
12:00 +29°C° 0 mm 1 mps 758 mmHg 77%
13:00 +30°C° 0 mm 2 mps 757 mmHg 73%
14:00 +31°C° 0 mm 3 mps 757 mmHg 69%
15:00 +30°C° 0 mm 3 mps 757 mmHg 70%
16:00 +30°C° 0 mm 3 mps 757 mmHg 71%
17:00 +30°C° 0 mm 3 mps 756 mmHg 72%
18:00 +29°C° 0 mm 2 mps 757 mmHg 76%
19:00 +28°C° 0 mm 2 mps 758 mmHg 79%
20:00 +28°C° 0 mm 2 mps 758 mmHg 83%
21:00 +27°C° 0.7 mm 2 mps 759 mmHg 85%
22:00 +27°C° 0.7 mm 1 mps 759 mmHg 87%
23:00 +27°C° 0.7 mm 1 mps 759 mmHg 89%

Day after tomorrow, 8 July, Wednesday

Time Temperature Precipitation Wind Pressure Humidity
00:00 +27°C° 0.2 mm 1 mps 759 mmHg 90%
01:00 +27°C° 0.2 mm 1 mps 758 mmHg 90%
02:00 +26°C° 0.2 mm 1 mps 757 mmHg 90%
03:00 +26°C° 0 mm 2 mps 758 mmHg 91%
04:00 +26°C° 0 mm 2 mps 758 mmHg 91%
05:00 +26°C° 0 mm 3 mps 758 mmHg 92%
06:00 +27°C° 0 mm 3 mps 758 mmHg 88%
07:00 +28°C° 0 mm 4 mps 758 mmHg 85%
08:00 +29°C° 0 mm 4 mps 758 mmHg 81%
09:00 +30°C° 0 mm 3 mps 758 mmHg 73%
10:00 +32°C° 0 mm 2 mps 758 mmHg 65%
11:00 +34°C° 0 mm 1 mps 758 mmHg 58%
12:00 +35°C° 0 mm 2 mps 758 mmHg 58%
13:00 +35°C° 0 mm 2 mps 757 mmHg 59%
14:00 +35°C° 0 mm 2 mps 757 mmHg 59%
15:00 +34°C° 0.1 mm 3 mps 757 mmHg 63%
16:00 +34°C° 0.1 mm 3 mps 756 mmHg 66%
17:00 +33°C° 0.1 mm 4 mps 756 mmHg 69%
18:00 +32°C° 0 mm 4 mps 756 mmHg 73%
19:00 +30°C° 0 mm 4 mps 757 mmHg 76%
20:00 +29°C° 0 mm 5 mps 757 mmHg 79%
21:00 +29°C° 0 mm 4 mps 757 mmHg 80%
22:00 +29°C° 0 mm 4 mps 758 mmHg 81%
23:00 +28°C° 0 mm 4 mps 758 mmHg 83%

9 July, Thursday

Time Temperature Precipitation Wind Pressure Humidity
00:00 +28°C° 0 mm 4 mps 757 mmHg 84%
01:00 +28°C° 0 mm 4 mps 757 mmHg 86%
02:00 +27°C° 0 mm 4 mps 757 mmHg 87%
03:00 +27°C° 0 mm 4 mps 757 mmHg 88%
04:00 +27°C° 0 mm 4 mps 757 mmHg 89%
05:00 +27°C° 0 mm 4 mps 757 mmHg 90%
06:00 +28°C° 0 mm 4 mps 758 mmHg 85%
07:00 +29°C° 0 mm 3 mps 758 mmHg 81%
08:00 +30°C° 0 mm 3 mps 759 mmHg 76%
09:00 +31°C° 0 mm 3 mps 758 mmHg 69%
10:00 +34°C° 0 mm 3 mps 758 mmHg 61%
11:00 +36°C° 0 mm 3 mps 758 mmHg 53%
12:00 +36°C° 0 mm 4 mps 757 mmHg 54%
13:00 +36°C° 0 mm 5 mps 757 mmHg 55%
14:00 +36°C° 0 mm 6 mps 756 mmHg 55%
15:00 +35°C° 0 mm 6 mps 756 mmHg 59%
16:00 +34°C° 0 mm 6 mps 756 mmHg 63%
17:00 +33°C° 0 mm 6 mps 756 mmHg 66%
18:00 +32°C° 0 mm 6 mps 756 mmHg 71%
19:00 +30°C° 0 mm 5 mps 757 mmHg 76%
20:00 +29°C° 0 mm 5 mps 758 mmHg 81%
21:00 +29°C° 0 mm 5 mps 758 mmHg 79%
22:00 +29°C° 0 mm 5 mps 758 mmHg 77%
23:00 +29°C° 0 mm 5 mps 758 mmHg 76%

10 July, Friday

Time Temperature Precipitation Wind Pressure Humidity
00:00 +29°C° 0 mm 5 mps 758 mmHg 76%
01:00 +29°C° 0 mm 5 mps 757 mmHg 76%
02:00 +29°C° 0 mm 5 mps 757 mmHg 76%
03:00 +29°C° 0 mm 4 mps 757 mmHg 77%
04:00 +29°C° 0 mm 4 mps 757 mmHg 78%
05:00 +28°C° 0 mm 4 mps 757 mmHg 79%
06:00 +29°C° 0 mm 3 mps 758 mmHg 75%
07:00 +30°C° 0 mm 3 mps 758 mmHg 70%
08:00 +31°C° 0 mm 3 mps 758 mmHg 66%
09:00 +33°C° 0 mm 3 mps 758 mmHg 62%
10:00 +34°C° 0 mm 4 mps 758 mmHg 58%
11:00 +35°C° 0 mm 4 mps 758 mmHg 53%
12:00 +36°C° 0 mm 5 mps 757 mmHg 53%
13:00 +36°C° 0 mm 6 mps 757 mmHg 52%
14:00 +36°C° 0 mm 6 mps 756 mmHg 51%
15:00 +35°C° 0 mm 6 mps 756 mmHg 56%
16:00 +34°C° 0 mm 6 mps 756 mmHg 60%
17:00 +33°C° 0 mm 5 mps 756 mmHg 65%
18:00 +32°C° 0 mm 5 mps 757 mmHg 68%
19:00 +30°C° 0 mm 6 mps 757 mmHg 71%
20:00 +29°C° 0 mm 6 mps 758 mmHg 73%
21:00 +29°C° 0 mm 5 mps 758 mmHg 75%
22:00 +29°C° 0 mm 5 mps 758 mmHg 76%
23:00 +29°C° 0 mm 4 mps 758 mmHg 77%

11 July, Saturday

Time Temperature Precipitation Wind Pressure Humidity
00:00 +29°C° 1.9 mm 4 mps 758 mmHg 78%
01:00 +29°C° 1.9 mm 3 mps 757 mmHg 80%
02:00 +28°C° 1.9 mm 3 mps 756 mmHg 82%
03:00 +28°C° 3.7 mm 3 mps 757 mmHg 84%
04:00 +28°C° 3.7 mm 3 mps 757 mmHg 86%
05:00 +27°C° 3.7 mm 3 mps 757 mmHg 88%
06:00 +28°C° 2.9 mm 2 mps 757 mmHg 87%
07:00 +28°C° 2.9 mm 2 mps 757 mmHg 85%
08:00 +28°C° 2.9 mm 2 mps 757 mmHg 84%
09:00 +28°C° 2.2 mm 3 mps 757 mmHg 83%
10:00 +29°C° 2.2 mm 3 mps 757 mmHg 82%
11:00 +29°C° 2.2 mm 3 mps 757 mmHg 81%
12:00 +28°C° 3.3 mm 3 mps 757 mmHg 85%
13:00 +27°C° 3.3 mm 4 mps 757 mmHg 89%
14:00 +26°C° 3.3 mm 4 mps 756 mmHg 93%
15:00 +26°C° 2.7 mm 3 mps 756 mmHg 93%
16:00 +26°C° 2.7 mm 2 mps 756 mmHg 94%
17:00 +26°C° 2.7 mm 2 mps 756 mmHg 94%
18:00 +26°C° 0.3 mm 2 mps 757 mmHg 94%
19:00 +26°C° 0.3 mm 3 mps 757 mmHg 93%
20:00 +26°C° 0.3 mm 3 mps 758 mmHg 93%
21:00 +26°C° 1.1 mm 4 mps 758 mmHg 92%
22:00 +26°C° 1.1 mm 6 mps 758 mmHg 92%
23:00 +26°C° 1.1 mm 7 mps 759 mmHg 91%
Show more